Time,TemperatureF,DewpointF,PressureIn,WindDirection,WindDirectionDegrees,WindSpeedMPH,WindSpeedGustMPH,Humidity,HourlyPrecipIn,Conditions,Clouds,dailyrainin,SoftwareType,DateUTC
2013-03-26 00:02:00,32.0,28.0,30.15,NW,315,4.0,8.0,85,0.00,,,0.08,,2013-03-26 05:02:00,
2013-03-26 00:12:00,32.0,28.0,30.15,NW,315,4.0,8.0,85,0.00,,,0.08,,2013-03-26 05:12:00,
2013-03-26 00:22:00,32.0,28.0,30.14,NW,315,5.0,8.0,85,0.00,,,0.08,,2013-03-26 05:22:00,
2013-03-26 00:32:00,32.0,28.0,30.15,NW,314,4.0,8.0,85,0.00,,,0.08,,2013-03-26 05:32:00,
2013-03-26 00:42:00,32.0,28.0,30.15,NW,314,4.0,8.0,85,0.00,,,0.08,,2013-03-26 05:42:00,
2013-03-26 00:52:00,32.0,28.0,30.15,North,360,3.0,7.0,85,0.00,,,0.08,,2013-03-26 05:52:00,
2013-03-26 01:02:00,32.0,28.0,30.15,NW,323,3.0,7.0,85,0.00,,,0.08,,2013-03-26 06:02:00,
2013-03-26 01:12:00,32.0,28.0,30.15,NW,323,3.0,7.0,85,0.00,,,0.08,,2013-03-26 06:12:00,
2013-03-26 01:22:00,32.0,28.0,30.16,NW,312,6.0,9.0,84,0.00,,,0.08,,2013-03-26 06:22:00,
2013-03-26 01:32:00,32.0,28.0,30.16,NW,317,6.0,9.0,85,0.00,,,0.08,,2013-03-26 06:32:00,
2013-03-26 01:42:00,32.0,28.0,30.16,NW,317,6.0,9.0,85,0.00,,,0.08,,2013-03-26 06:42:00,
2013-03-26 01:52:00,32.0,28.0,30.16,NW,315,6.0,10.0,84,0.00,,,0.08,,2013-03-26 06:52:00,
2013-03-26 02:02:00,32.0,28.0,30.16,NW,318,5.0,9.0,85,0.00,,,0.08,,2013-03-26 07:02:00,
2013-03-26 02:12:00,32.0,28.0,30.16,NW,318,5.0,9.0,85,0.00,,,0.08,,2013-03-26 07:12:00,
2013-03-26 02:22:00,31.0,27.0,30.16,WNW,292,4.0,7.0,85,0.00,,,0.08,,2013-03-26 07:22:00,
2013-03-26 02:33:00,31.0,27.0,30.16,WNW,298,4.0,6.0,86,0.00,,,0.08,,2013-03-26 07:33:00,
2013-03-26 02:42:00,31.0,27.0,30.16,WNW,298,4.0,6.0,86,0.00,,,0.08,,2013-03-26 07:42:00,
2013-03-26 02:52:00,31.0,27.0,30.16,NW,315,5.0,8.0,85,0.00,,,0.08,,2013-03-26 07:52:00,
2013-03-26 03:02:00,31.0,27.0,30.16,NW,313,5.0,9.0,85,0.00,,,0.08,,2013-03-26 08:02:00,
2013-03-26 03:12:00,31.0,27.0,30.16,NW,313,5.0,9.0,85,0.00,,,0.08,,2013-03-26 08:12:00,
2013-03-26 03:22:00,31.0,27.0,30.16,WNW,292,5.0,9.0,85,0.00,,,0.08,,2013-03-26 08:22:00,
2013-03-26 03:32:00,31.0,27.0,30.16,NW,309,5.0,9.0,85,0.00,,,0.08,,2013-03-26 08:32:00,
2013-03-26 03:42:00,31.0,27.0,30.16,NW,309,5.0,9.0,85,0.00,,,0.08,,2013-03-26 08:42:00,
2013-03-26 03:52:00,31.0,27.0,30.16,WNW,296,4.0,8.0,86,0.00,,,0.08,,2013-03-26 08:52:00,
2013-03-26 04:02:00,31.0,27.0,30.16,NW,311,5.0,9.0,85,0.00,,,0.08,,2013-03-26 09:02:00,
2013-03-26 04:12:00,31.0,27.0,30.16,NW,311,5.0,9.0,85,0.00,,,0.08,,2013-03-26 09:12:00,
2013-03-26 04:22:00,31.0,27.0,30.16,WNW,292,4.0,8.0,86,0.00,,,0.08,,2013-03-26 09:22:00,
2013-03-26 04:33:00,31.0,27.0,30.16,NW,316,4.0,8.0,85,0.00,,,0.08,,2013-03-26 09:33:00,
2013-03-26 04:42:00,31.0,27.0,30.16,NW,316,4.0,8.0,85,0.00,,,0.08,,2013-03-26 09:42:00,
2013-03-26 04:52:00,31.0,27.0,30.17,NW,316,5.0,8.0,85,0.00,,,0.08,,2013-03-26 09:52:00,
2013-03-26 05:02:00,31.0,27.0,30.17,NW,325,6.0,10.0,85,0.00,,,0.08,,2013-03-26 10:02:00,
2013-03-26 05:12:00,31.0,27.0,30.17,NW,325,6.0,10.0,85,0.00,,,0.08,,2013-03-26 10:12:00,
2013-03-26 05:22:00,31.0,27.0,30.17,NW,308,5.0,8.0,85,0.00,,,0.08,,2013-03-26 10:22:00,
2013-03-26 05:32:00,31.0,27.0,30.18,WNW,288,5.0,9.0,85,0.00,,,0.08,,2013-03-26 10:32:00,
2013-03-26 05:42:00,31.0,27.0,30.18,WNW,288,5.0,9.0,85,0.00,,,0.08,,2013-03-26 10:42:00,
2013-03-26 05:52:00,31.0,27.0,30.18,NW,305,6.0,11.0,85,0.00,,,0.08,,2013-03-26 10:52:00,
2013-03-26 06:03:00,31.0,27.0,30.18,NW,315,6.0,12.0,85,0.00,,,0.08,,2013-03-26 11:03:00,
2013-03-26 06:12:00,31.0,27.0,30.18,NW,315,6.0,12.0,85,0.00,,,0.08,,2013-03-26 11:12:00,
2013-03-26 06:22:00,31.0,27.0,30.19,NW,306,6.0,11.0,85,0.00,,,0.08,,2013-03-26 11:22:00,
2013-03-26 06:32:00,31.0,27.0,30.19,NW,318,7.0,10.0,85,0.00,,,0.08,,2013-03-26 11:32:00,
2013-03-26 06:42:00,31.0,27.0,30.19,NW,318,7.0,10.0,85,0.00,,,0.08,,2013-03-26 11:42:00,
2013-03-26 06:52:00,31.0,27.0,30.19,NW,318,7.0,10.0,85,0.00,,,0.08,,2013-03-26 11:52:00,
2013-03-26 07:03:00,31.0,27.0,30.19,NW,318,7.0,10.0,85,0.00,,,0.08,,2013-03-26 12:03:00,
2013-03-26 07:12:00,31.0,27.0,30.20,NW,315,7.0,10.0,85,0.00,,,0.08,,2013-03-26 12:12:00,
2013-03-26 07:22:00,31.0,27.0,30.21,NW,305,6.0,11.0,85,0.00,,,0.08,,2013-03-26 12:22:00,
2013-03-26 07:32:00,31.0,27.0,30.21,WNW,300,6.0,11.0,85,0.00,,,0.08,,2013-03-26 12:32:00,
2013-03-26 07:42:00,31.0,27.0,30.21,WNW,300,6.0,11.0,85,0.00,,,0.08,,2013-03-26 12:42:00,
2013-03-26 07:52:00,31.0,27.0,30.22,NW,306,6.0,9.0,85,0.00,,,0.08,,2013-03-26 12:52:00,
2013-03-26 08:03:00,31.0,27.0,30.23,NW,306,6.0,10.0,84,0.00,,,0.08,,2013-03-26 13:03:00,
2013-03-26 08:12:00,31.0,27.0,30.23,NW,306,6.0,10.0,84,0.00,,,0.08,,2013-03-26 13:12:00,
2013-03-26 08:22:00,31.0,27.0,30.23,NW,305,6.0,12.0,84,0.00,,,0.08,,2013-03-26 13:22:00,
2013-03-26 08:32:00,31.0,27.0,30.24,WNW,297,5.0,9.0,84,0.00,,,0.08,,2013-03-26 13:32:00,
2013-03-26 08:42:00,31.0,27.0,30.24,WNW,297,5.0,9.0,84,0.00,,,0.08,,2013-03-26 13:42:00,
2013-03-26 08:52:00,31.0,27.0,30.24,WNW,286,6.0,10.0,84,0.00,,,0.08,,2013-03-26 13:52:00,
2013-03-26 09:02:00,31.0,26.0,30.24,NW,317,6.0,13.0,83,0.00,,,0.08,,2013-03-26 14:02:00,
2013-03-26 09:11:00,31.0,26.0,30.24,NW,317,6.0,13.0,83,0.00,,,0.08,,2013-03-26 14:11:00,
2013-03-26 09:22:00,32.0,27.0,30.25,NNW,333,7.0,11.0,82,0.00,,,0.08,,2013-03-26 14:22:00,
2013-03-26 09:32:00,32.0,27.0,30.25,NNW,329,8.0,13.0,81,0.00,,,0.08,,2013-03-26 14:32:00,
2013-03-26 09:42:00,32.0,27.0,30.25,NNW,329,8.0,13.0,81,0.00,,,0.08,,2013-03-26 14:42:00,
2013-03-26 09:53:00,32.0,27.0,30.25,NW,319,8.0,12.0,82,0.00,,,0.08,,2013-03-26 14:53:00,
2013-03-26 10:02:00,33.0,28.0,30.26,NW,311,6.0,12.0,81,0.00,,,0.08,,2013-03-26 15:02:00,
2013-03-26 10:12:00,33.0,28.0,30.26,NW,311,6.0,12.0,81,0.00,,,0.08,,2013-03-26 15:12:00,
2013-03-26 10:22:00,33.0,28.0,30.26,NW,317,7.0,14.0,80,0.00,,,0.08,,2013-03-26 15:22:00,
2013-03-26 10:33:00,33.0,28.0,30.27,NW,317,6.0,11.0,80,0.00,,,0.08,,2013-03-26 15:33:00,
2013-03-26 10:43:00,33.0,28.0,30.27,NW,317,6.0,11.0,80,0.00,,,0.08,,2013-03-26 15:43:00,
2013-03-26 10:53:00,34.0,28.0,30.27,NW,324,6.0,11.0,80,0.00,,,0.08,,2013-03-26 15:53:00,
2013-03-26 11:02:00,34.0,28.0,30.27,NW,319,9.0,13.0,79,0.00,,,0.08,,2013-03-26 16:02:00,
2013-03-26 11:12:00,34.0,28.0,30.27,NW,319,9.0,13.0,79,0.00,,,0.08,,2013-03-26 16:12:00,
2013-03-26 11:22:00,34.0,28.0,30.27,NNW,329,8.0,13.0,78,0.00,,,0.08,,2013-03-26 16:22:00,
2013-03-26 11:32:00,34.0,28.0,30.28,WNW,292,7.0,14.0,78,0.00,,,0.08,,2013-03-26 16:32:00,
2013-03-26 11:42:00,34.0,28.0,30.28,WNW,292,7.0,14.0,78,0.00,,,0.08,,2013-03-26 16:42:00,
2013-03-26 11:53:00,34.0,28.0,30.28,West,280,8.0,12.0,77,0.00,,,0.08,,2013-03-26 16:53:00,
2013-03-26 12:02:00,34.0,27.0,30.28,WNW,302,8.0,11.0,76,0.00,,,0.08,,2013-03-26 17:02:00,
2013-03-26 12:12:00,34.0,27.0,30.28,WNW,302,8.0,11.0,76,0.00,,,0.08,,2013-03-26 17:12:00,
2013-03-26 12:23:00,35.0,28.0,30.28,West,277,7.0,12.0,75,0.00,,,0.08,,2013-03-26 17:23:00,
2013-03-26 12:32:00,35.0,28.0,30.28,WNW,299,8.0,13.0,74,0.00,,,0.07,,2013-03-26 17:32:00,
2013-03-26 12:42:00,35.0,28.0,30.28,WNW,299,8.0,13.0,74,0.00,,,0.07,,2013-03-26 17:42:00,
2013-03-26 12:53:00,35.0,28.0,30.28,WNW,289,7.0,14.0,74,0.00,,,0.07,,2013-03-26 17:53:00,
2013-03-26 13:02:00,35.0,27.0,30.28,WNW,285,9.0,14.0,71,0.00,,,0.07,,2013-03-26 18:02:00,
2013-03-26 13:12:00,35.0,27.0,30.28,WNW,285,9.0,14.0,71,0.00,,,0.07,,2013-03-26 18:12:00,
2013-03-26 13:23:00,35.0,27.0,30.28,West,276,8.0,13.0,72,0.00,,,0.07,,2013-03-26 18:23:00,
2013-03-26 13:33:00,35.0,28.0,30.28,West,265,9.0,15.0,75,0.00,,,0.06,,2013-03-26 18:33:00,
2013-03-26 13:42:00,35.0,28.0,30.28,West,265,9.0,15.0,75,0.00,,,0.06,,2013-03-26 18:42:00,
2013-03-26 13:53:00,35.0,28.0,30.28,West,268,9.0,15.0,74,0.00,,,0.06,,2013-03-26 18:53:00,
2013-03-26 14:02:00,35.0,28.0,30.28,West,273,9.0,15.0,74,0.00,,,0.06,,2013-03-26 19:02:00,
2013-03-26 14:12:00,35.0,28.0,30.28,West,273,9.0,15.0,74,0.00,,,0.06,,2013-03-26 19:12:00,
2013-03-26 14:22:00,35.0,28.0,30.28,West,273,9.0,15.0,74,0.00,,,0.06,,2013-03-26 19:22:00,
2013-03-26 14:32:00,35.0,28.0,30.28,West,273,9.0,15.0,74,0.00,,,0.06,,2013-03-26 19:32:00,
2013-03-26 14:42:00,35.0,28.0,30.28,West,273,9.0,15.0,74,0.00,,,0.06,,2013-03-26 19:42:00,
2013-03-26 14:53:00,36.0,27.0,30.27,NW,312,8.0,13.0,69,0.00,,,0.03,,2013-03-26 19:53:00,
2013-03-26 15:02:00,36.0,26.0,30.27,WNW,293,9.0,16.0,68,0.00,,,0.03,,2013-03-26 20:02:00,
2013-03-26 15:13:00,36.0,26.0,30.27,WNW,293,9.0,16.0,68,0.00,,,0.03,,2013-03-26 20:13:00,
2013-03-26 15:22:00,35.0,27.0,30.27,West,267,8.0,13.0,71,0.00,,,0.03,,2013-03-26 20:22:00,
2013-03-26 15:32:00,35.0,26.0,30.27,West,281,7.0,12.0,70,0.00,,,0.02,,2013-03-26 20:32:00,
2013-03-26 15:42:00,35.0,26.0,30.27,West,281,7.0,12.0,70,0.00,,,0.02,,2013-03-26 20:42:00,
2013-03-26 15:52:00,36.0,27.0,30.27,West,271,6.0,11.0,70,0.00,,,0.02,,2013-03-26 20:52:00,
2013-03-26 16:02:00,36.0,26.0,30.27,WNW,283,6.0,12.0,67,0.00,,,0.02,,2013-03-26 21:02:00,
2013-03-26 16:12:00,36.0,26.0,30.27,WNW,283,6.0,12.0,67,0.00,,,0.02,,2013-03-26 21:12:00,
2013-03-26 16:22:00,36.0,26.0,30.27,WNW,283,6.0,12.0,67,0.00,,,0.02,,2013-03-26 21:22:00,
2013-03-26 16:32:00,36.0,26.0,30.27,WNW,283,6.0,12.0,67,0.00,,,0.02,,2013-03-26 21:32:00,
2013-03-26 16:42:00,36.0,26.0,30.27,WNW,283,6.0,12.0,67,0.00,,,0.02,,2013-03-26 21:42:00,
2013-03-26 17:22:00,35.0,28.0,30.28,WNW,283,7.0,12.0,74,0.00,,,0.01,,2013-03-26 22:22:00,
2013-03-26 17:33:00,35.0,28.0,30.28,WNW,283,7.0,12.0,74,0.00,,,0.01,,2013-03-26 22:33:00,
2013-03-26 17:42:00,35.0,28.0,30.28,WNW,283,7.0,12.0,74,0.00,,,0.01,,2013-03-26 22:42:00,
2013-03-26 18:22:00,34.0,28.0,30.29,WNW,285,8.0,15.0,77,0.00,,,0.00,,2013-03-26 23:22:00,
2013-03-26 18:32:00,34.0,28.0,30.30,West,275,6.0,13.0,77,0.00,,,0.00,,2013-03-26 23:32:00,
2013-03-26 18:43:00,34.0,28.0,30.30,West,275,6.0,13.0,77,0.00,,,0.00,,2013-03-26 23:43:00,
2013-03-26 18:53:00,34.0,27.0,30.30,WNW,300,6.0,12.0,76,0.00,,,0.00,,2013-03-26 23:53:00,
2013-03-26 19:02:00,34.0,28.0,30.30,WNW,288,6.0,11.0,77,0.00,,,0.00,,2013-03-27 00:02:00,
2013-03-26 19:12:00,34.0,28.0,30.30,WNW,288,6.0,11.0,77,0.00,,,0.00,,2013-03-27 00:12:00,
2013-03-26 19:22:00,34.0,28.0,30.30,WNW,283,5.0,10.0,77,0.00,,,0.00,,2013-03-27 00:22:00,
2013-03-26 19:32:00,34.0,28.0,30.30,WNW,291,5.0,9.0,77,0.00,,,0.00,,2013-03-27 00:32:00,
2013-03-26 19:42:00,34.0,28.0,30.30,WNW,291,5.0,9.0,77,0.00,,,0.00,,2013-03-27 00:42:00,
2013-03-26 19:52:00,34.0,27.0,30.30,West,274,6.0,11.0,76,0.00,,,0.00,,2013-03-27 00:52:00,
2013-03-26 20:02:00,34.0,27.0,30.30,NW,308,5.0,9.0,76,0.00,,,0.00,,2013-03-27 01:02:00,
2013-03-26 20:12:00,34.0,27.0,30.30,NW,308,5.0,9.0,76,0.00,,,0.00,,2013-03-27 01:12:00,
2013-03-26 20:22:00,34.0,28.0,30.31,West,273,5.0,9.0,77,0.00,,,0.00,,2013-03-27 01:22:00,
2013-03-26 20:33:00,34.0,28.0,30.31,WNW,292,5.0,10.0,77,0.00,,,0.00,,2013-03-27 01:33:00,
2013-03-26 20:42:00,34.0,28.0,30.31,WNW,292,5.0,10.0,77,0.00,,,0.00,,2013-03-27 01:42:00,
2013-03-26 20:53:00,34.0,27.0,30.31,West,273,6.0,11.0,76,0.00,,,0.00,,2013-03-27 01:53:00,
2013-03-26 21:02:00,34.0,28.0,30.32,West,281,5.0,10.0,77,0.00,,,0.00,,2013-03-27 02:02:00,
2013-03-26 21:12:00,34.0,28.0,30.32,West,281,5.0,10.0,77,0.00,,,0.00,,2013-03-27 02:12:00,
2013-03-26 21:22:00,34.0,28.0,30.32,West,274,5.0,9.0,77,0.00,,,0.00,,2013-03-27 02:22:00,
2013-03-26 21:32:00,34.0,28.0,30.31,West,267,5.0,8.0,77,0.00,,,0.00,,2013-03-27 02:32:00,
2013-03-26 21:42:00,34.0,28.0,30.31,West,267,5.0,8.0,77,0.00,,,0.00,,2013-03-27 02:42:00,
2013-03-26 21:53:00,34.0,28.0,30.32,WNW,292,4.0,8.0,78,0.00,,,0.00,,2013-03-27 02:53:00,
2013-03-26 22:02:00,34.0,28.0,30.32,West,278,4.0,8.0,78,0.00,,,0.00,,2013-03-27 03:02:00,
2013-03-26 22:12:00,34.0,28.0,30.32,West,278,4.0,8.0,78,0.00,,,0.00,,2013-03-27 03:12:00,
2013-03-26 22:22:00,34.0,28.0,30.32,WNW,300,5.0,8.0,78,0.00,,,0.00,,2013-03-27 03:22:00,
2013-03-26 22:33:00,34.0,28.0,30.32,West,279,4.0,7.0,79,0.00,,,0.00,,2013-03-27 03:33:00,
2013-03-26 22:42:00,34.0,28.0,30.32,West,279,4.0,7.0,79,0.00,,,0.00,,2013-03-27 03:42:00,
2013-03-26 22:53:00,34.0,28.0,30.32,WNW,290,4.0,7.0,79,0.00,,,0.00,,2013-03-27 03:53:00,
2013-03-26 23:02:00,33.0,27.0,30.32,West,269,4.0,7.0,79,0.00,,,0.00,,2013-03-27 04:02:00,
2013-03-26 23:13:00,33.0,27.0,30.32,West,269,4.0,7.0,79,0.00,,,0.00,,2013-03-27 04:13:00,
2013-03-26 23:23:00,34.0,28.0,30.32,WNW,292,4.0,8.0,79,0.00,,,0.00,,2013-03-27 04:23:00,
2013-03-26 23:33:00,34.0,28.0,30.32,WNW,290,4.0,7.0,79,0.00,,,0.00,,2013-03-27 04:33:00,
2013-03-26 23:42:00,34.0,28.0,30.32,WNW,290,4.0,7.0,79,0.00,,,0.00,,2013-03-27 04:42:00,
2013-03-26 23:52:00,33.0,27.0,30.32,WNW,285,3.0,6.0,79,0.00,,,0.00,,2013-03-27 04:52:00,